Date String (YYYY-MM-DD hh:mm:ss) UTC,Instrument flags,absolute air pressure of the measurement (hPa),sample flow rate (lpm),inlet stack bypass flow (lpm),air temperature of the measurement (°C),ambient temperature measured by the external sensor (°C),aerosol sample conditioner tube jacket temperature (°C),OPC LED temperature (°C),internal box temperature (°C),relative humidity of the measurement (%),span deviation,mass concentration of particles derived from Lorenz-Mie calculation of OPC scattering (μg/m³),mass concentration of particles derived from Lorenz-Mie calculation of OPC scattering (μg/m³),mass concentration of particles derived from Lorenz-Mie calculation of OPC scattering (μg/m³)
DateTimeUTC,F1_M11,P_M11,Q1_M11,Q2_M11,T1_M11,T2_M11,T3_M11,T4_M11,T5_M11,U1_M11,ZSPAN_M11,X0_M11,X2_M11,X1_M11
2023-07-13 05:00:00,SystemResetWarning,0832.0,5.01,000.00,029.0,024.6,000.0,037.2,030.2,22.5,0000.0,0009.01,0003.70,0003.10
2023-07-13 05:01:00,SystemResetWarning,0831.9,4.98,000.00,028.9,024.9,000.0,037.2,030.1,21.4,0000.0,0008.54,0003.65,0003.10
2023-07-13 05:02:00,SystemResetWarning,0832.0,5.00,000.00,028.8,025.4,000.0,037.3,030.1,22.8,0000.0,0008.32,0003.63,0003.09
2023-07-13 05:03:00,SystemResetWarning,0831.9,5.01,000.00,028.8,025.9,000.0,037.3,030.2,23.5,0000.0,0008.37,0003.62,0003.07
2023-07-13 05:04:00,SystemResetWarning,0831.9,5.01,000.00,028.8,026.3,000.0,037.3,030.3,24.7,0000.0,0007.91,0003.60,0003.04
2023-07-13 05:05:00,SystemResetWarning,0831.8,5.00,000.00,028.8,026.7,000.0,037.3,030.4,23.0,0000.0,0007.99,0003.58,0003.02
2023-07-13 05:06:00,SystemResetWarning,0832.0,5.00,000.00,028.9,027.0,000.0,037.3,030.5,22.0,0000.0,0007.31,0003.54,0003.00
2023-07-13 05:07:00,SystemResetWarning,0831.8,5.00,000.00,028.9,027.3,000.0,037.3,030.6,21.3,0000.0,0006.84,0003.51,0002.99
2023-07-13 05:08:00,SystemResetWarning,0831.7,4.99,000.00,028.9,027.5,000.0,037.4,030.6,21.0,0000.0,0007.50,0003.49,0002.99
2023-07-13 05:09:00,SystemResetWarning,0831.7,5.00,000.00,029.0,027.7,000.0,037.4,030.7,21.5,0000.0,0007.76,0003.45,0002.99
2023-07-13 05:10:00,SystemResetWarning,0831.6,5.00,000.00,029.0,027.9,000.0,037.4,030.8,21.7,0000.0,0008.50,0003.47,0002.98
2023-07-13 05:11:00,SystemResetWarning,0831.6,5.00,000.00,029.1,028.0,000.0,037.4,030.8,21.2,0000.0,0008.57,0003.49,0002.99
2023-07-13 05:12:00,SystemResetWarning,0831.6,4.99,000.00,029.1,027.4,000.0,037.4,030.8,21.3,0000.0,0008.93,0003.53,0003.00
2023-07-13 05:13:00,SystemResetWarning,0831.6,5.00,000.00,029.1,025.8,000.0,037.3,030.6,21.3,0000.0,0009.33,0003.51,0003.00
2023-07-13 05:14:00,SystemResetWarning,0831.6,5.01,000.00,029.0,025.6,000.0,037.2,030.5,21.2,0000.0,0009.86,0003.50,0002.99
2023-07-13 05:15:00,SystemResetWarning,0831.6,5.00,000.00,029.0,025.8,000.0,037.3,030.4,21.3,0000.0,0009.93,0003.51,0002.98
2023-07-13 05:16:00,SystemResetWarning,0831.6,4.99,000.00,028.9,026.2,000.0,037.3,030.4,21.6,0000.0,0010.15,0003.52,0002.95
2023-07-13 05:17:00,SystemResetWarning,0831.6,5.00,000.00,028.9,026.5,000.0,037.4,030.5,21.8,0000.0,0010.32,0003.52,0002.93
2023-07-13 05:18:00,SystemResetWarning,0831.6,5.00,000.00,029.0,026.9,000.0,037.4,030.6,21.6,0000.0,0010.21,0003.53,0002.93
2023-07-13 05:19:00,SystemResetWarning,0831.5,5.00,000.00,029.0,027.2,000.0,037.4,030.6,21.6,0000.0,0009.68,0003.53,0002.91
2023-07-13 05:20:00,SystemResetWarning,0831.6,5.00,000.00,029.0,027.5,000.0,037.4,030.7,21.5,0000.0,0009.33,0003.51,0002.89
2023-07-13 05:21:00,SystemResetWarning,0831.6,5.00,000.00,029.1,027.7,000.0,037.5,030.8,21.7,0000.0,0008.51,0003.46,0002.85
2023-07-13 05:22:00,SystemResetWarning,0831.6,4.99,000.00,029.1,027.8,000.0,037.5,030.8,21.6,0000.0,0008.53,0003.45,0002.83
2023-07-13 05:23:00,SystemResetWarning,0831.5,4.99,000.00,029.1,026.7,000.0,037.4,030.7,21.9,0000.0,0008.24,0003.39,0002.78
2023-07-13 05:24:00,SystemResetWarning,0831.5,5.01,000.00,029.1,025.6,000.0,037.3,030.5,21.9,0000.0,0008.25,0003.40,0002.74
2023-07-13 05:25:00,SystemResetWarning,0831.5,5.01,000.00,029.0,025.6,000.0,037.3,030.4,21.9,0000.0,0007.80,0003.39,0002.72
2023-07-13 05:26:00,SystemResetWarning,0831.5,4.99,000.00,029.0,025.9,000.0,037.3,030.4,22.1,0000.0,0008.22,0003.35,0002.68
2023-07-13 05:27:00,SystemResetWarning,0831.5,5.00,000.00,028.9,026.3,000.0,037.4,030.4,22.2,0000.0,0007.86,0003.31,0002.66
2023-07-13 05:28:00,SystemResetWarning,0831.5,4.99,000.00,029.0,026.6,000.0,037.4,030.5,21.9,0000.0,0007.68,0003.29,0002.63
2023-07-13 05:29:00,SystemResetWarning,0831.6,5.00,000.00,029.0,027.0,000.0,037.4,030.6,21.8,0000.0,0007.72,0003.27,0002.58
2023-07-13 05:30:00,SystemResetWarning,0831.6,5.00,000.00,029.0,027.3,000.0,037.4,030.7,22.0,0000.0,0007.66,0003.24,0002.55
2023-07-13 05:31:00,SystemResetWarning,0831.6,5.00,000.00,029.0,027.5,000.0,037.4,030.7,21.9,0000.0,0007.71,0003.23,0002.53
2023-07-13 05:32:00,SystemResetWarning,0831.6,5.00,000.00,029.1,027.7,000.0,037.5,030.8,21.9,0000.0,0007.71,0003.21,0002.52
2023-07-13 05:33:00,SystemResetWarning,0831.6,4.99,000.00,029.1,027.9,000.0,037.5,030.9,21.9,0000.0,0007.58,0003.17,0002.49
2023-07-13 05:34:00,SystemResetWarning,0831.6,5.00,000.00,029.2,027.9,000.0,037.5,030.9,21.8,0000.0,0008.09,0003.16,0002.48
2023-07-13 05:35:00,SystemResetWarning,0831.5,4.99,000.00,029.2,026.4,000.0,037.4,030.7,21.9,0000.0,0008.67,0003.15,0002.48
2023-07-13 05:36:00,SystemResetWarning,0831.5,5.01,000.00,029.1,025.6,000.0,037.3,030.6,22.2,0000.0,0008.21,0003.12,0002.46
2023-07-13 05:37:00,SystemResetWarning,0831.5,5.01,000.00,029.1,025.8,000.0,037.3,030.4,22.1,0000.0,0007.79,0003.10,0002.45
2023-07-13 05:38:00,SystemResetWarning,0831.4,5.01,000.00,029.0,026.1,000.0,037.4,030.4,22.0,0000.0,0007.43,0003.10,0002.46
2023-07-13 05:39:00,SystemResetWarning,0831.4,5.00,000.00,029.0,026.5,000.0,037.4,030.5,21.7,0000.0,0007.85,0003.08,0002.47
2023-07-13 05:40:00,SystemResetWarning,0831.4,5.00,000.00,029.0,026.8,000.0,037.4,030.6,22.0,0000.0,0007.95,0003.05,0002.47
2023-07-13 05:41:00,SystemResetWarning,0831.5,5.00,000.00,029.0,027.1,000.0,037.5,030.7,22.6,0000.0,0008.03,0003.11,0002.48
2023-07-13 05:42:00,SystemResetWarning,0831.5,5.00,000.00,029.1,027.4,000.0,037.5,030.7,22.8,0000.0,0008.05,0003.13,0002.47
2023-07-13 05:43:00,SystemResetWarning,0831.4,4.99,000.00,029.1,027.6,000.0,037.5,030.8,23.7,0000.0,0008.12,0003.15,0002.47
2023-07-13 05:44:00,SystemResetWarning,0831.4,5.00,000.00,029.2,027.8,000.0,037.5,030.9,24.1,0000.0,0008.22,0003.17,0002.46
2023-07-13 05:45:00,SystemResetWarning,0831.4,5.00,000.00,029.2,027.9,000.0,037.6,030.9,24.7,0000.0,0007.70,0003.18,0002.44
2023-07-13 05:46:00,SystemResetWarning,0831.4,4.99,000.00,029.2,026.6,000.0,037.5,030.8,25.0,0000.0,0006.73,0003.16,0002.43
2023-07-13 05:47:00,SystemResetWarning,0831.4,5.01,000.00,029.1,025.5,000.0,037.3,030.6,25.3,0000.0,0007.48,0003.17,0002.43
2023-07-13 05:48:00,SystemResetWarning,0831.3,5.01,000.00,029.1,025.6,000.0,037.3,030.4,25.6,0000.0,0007.89,0003.16,0002.43
2023-07-13 05:49:00,SystemResetWarning,0831.3,5.00,000.00,029.0,025.9,000.0,037.4,030.4,25.7,0000.0,0007.85,0003.16,0002.41
2023-07-13 05:50:00,SystemResetWarning,0831.3,5.00,000.00,029.0,026.3,000.0,037.4,030.5,25.4,0000.0,0007.71,0003.22,0002.42
2023-07-13 05:51:00,SystemResetWarning,0831.3,5.00,000.00,029.0,026.7,000.0,037.5,030.6,25.3,0000.0,0009.52,0003.32,0002.45
2023-07-13 05:52:00,SystemResetWarning,0831.3,5.00,000.00,029.0,027.0,000.0,037.5,030.6,25.1,0000.0,0012.13,0003.37,0002.49
2023-07-13 05:53:00,SystemResetWarning,0831.3,5.00,000.00,029.1,027.3,000.0,037.5,030.7,25.7,0000.0,0012.54,0003.39,0002.54
2023-07-13 05:54:00,SystemResetWarning,0831.3,5.00,000.00,029.1,027.5,000.0,037.5,030.8,25.9,0000.0,0012.97,0003.44,0002.59
2023-07-13 05:55:00,SystemResetWarning,0831.3,5.00,000.00,029.1,027.7,000.0,037.5,030.8,25.0,0000.0,0013.58,0003.50,0002.66
2023-07-13 05:56:00,SystemResetWarning,0831.3,5.00,000.00,029.2,027.9,000.0,037.6,030.9,25.7,0000.0,0013.61,0003.53,0002.72
2023-07-13 05:57:00,SystemResetWarning,0831.3,5.00,000.00,029.2,028.0,000.0,037.6,030.9,25.2,0000.0,0013.93,0003.56,0002.77
2023-07-13 05:58:00,SystemResetWarning,0831.3,4.99,000.00,029.2,027.2,000.0,037.5,030.9,25.5,0000.0,0014.09,0003.59,0002.82
2023-07-13 05:59:00,SystemResetWarning,0831.3,5.01,000.00,029.2,025.7,000.0,037.4,030.7,25.4,0000.0,0013.74,0003.64,0002.87
